Location: Oberkirch
(48.5323°N, 8.0787°E)
Time: 22:13:53
(UTC+00:00)

Tiros 1 - Pass Details

Date: 17 February 2026
Orbit: 618 x 649 km, 48.4° (Epoch: 7 March)

Event Time Altitude Azimuth Distance (km) Brightness Sun altitude
Rises 14:47:18 0° 280° (W) 2,890 11.0 17.0°
Reaches altitude 10° 14:50:20 10° 260° (W) 1,979 10.8 16.7°
Maximum altitude 14:53:09 16° 221° (SW) 1,601 11.9 16.3°
Drops below altitude 10° 14:55:57 10° 183° (S) 1,974 10.4 16.0°
Sets 14:58:59 0° 162° (SSE) 2,878 10.8 15.6°
